Location: Austin
(30.3000°N, 97.7500°W)
Time: 07:13:56
(UTC-05:00)

H-2A R/B - Pass Details

Date: 16 June 2025
Orbit: 555 x 621 km, 98.4° (Epoch: 07 July)

Event Time Altitude Azimuth Distance (km) Brightness Sun altitude
Rises 04:23:12 0° 349° (N) 2,743 5.9 -22.4°
Reaches altitude 10° 04:26:06 10° 325° (NW) 1,851 4.6 -22.0°
Enters shadow 04:27:32 14° 305° (NW) 1,604 4.1 -21.8°
